Overview Statistics Trail Chart Weather Telemetry Raw packets
 

This is the latest recevied weather packets stored in our database for station/object W5CDN. If no packets are shown the sender has not sent any weather packets the latest 10 day(s).

<< 57 58 59 60 61 62 63 >>
Time Temp. Humidity Pressure Rain* Wind** Luminosity Snow
1788016736 31.11° C 55% 1017.5 hPa 0 mm - - -
1788016436 30.56° C 59% 1017.7 hPa 0 mm - - -
1788016136 30° C 59% 1017.6 hPa 0 mm - - -
1788015836 30° C 61% 1017.6 hPa 0 mm - - -
1788015536 30° C 60% 1017.6 hPa 0 mm - - -
1788015236 29.44° C 61% 1017.5 hPa 0 mm - - -
1788014936 28.89° C 63% 1017.7 hPa 0 mm - - -
1788014636 29.44° C 63% 1017.6 hPa 0 mm - - -
1788014336 28.89° C 63% 1017.7 hPa 0 mm - - -
1788014036 28.33° C 65% 1017.7 hPa 0 mm - - -
1788013736 27.78° C 67% 1017.5 hPa 0 mm - - -
1788013436 27.78° C 68% 1017.7 hPa 0 mm - - -
1788013136 27.22° C 68% 1017.6 hPa 0 mm - - -
1788012836 27.78° C 71% 1017.8 hPa 0 mm - - -
1788012536 27.78° C 71% 1017.7 hPa 0 mm - - -
1788012236 27.78° C 71% 1017.6 hPa 0 mm - - -
1788011936 27.22° C 72% 1017.8 hPa 0 mm - - -
1788011636 27.22° C 74% 1017.7 hPa 0 mm - - -
1788011337 26.67° C 76% 1017.7 hPa 0 mm - - -
1788011036 26.67° C 77% 1017.8 hPa 0 mm - - -
1788010736 26.11° C 78% 1017.9 hPa 0 mm - - -
1788010436 26.11° C 78% 1017.9 hPa 0 mm - - -
1788010136 26.11° C 79% 1018 hPa 0 mm - - -
1788009836 26.11° C 79% 1018 hPa 0 mm - - -
1788009536 25.56° C 80% 1018.1 hPa 0 mm - - -

* Rain latest hour (hover to see other rain measurements)
** Current wind speed in m/s (hover to see current wind gust speed)